Погода в Любашевке

Погода в Любашевке : погода сейчас, прогноз погоды и архив. Всё, что Вы хотите узнать о погоде в Любашевке!

Хотите узнать прогноз погоды в Любашевке? Тогда Вам сюда: Погода в Любашевке

Поиск расширенной информации на нашем сайте:

Полезная информация: Схемы вышивки рушника на иконы.

Другие новости

Новости СМИ2

Главная страница сайта

Новости сайта

02.10.2013

Напоминаем, что на нашем новом сайте вы можете получить высокодетализированные прогнозы погоды по пунктам России, СНГ и мира (включающие важные для авиации метеовеличины, такие как направление и скорость ветра, видимость, явления погоды, количество и форма облачности, нижняя и верхняя граница облачности), а также ознакомиться с разнообразными материалами по авиационной метеорологии и подборкой полезных ссылок на эту тему.

Сайт Метеоцентр.Азия посвящён разработке технологий оптимизации авиаметеорологического обслуживания, включая проектирование и перспективное создание нескольких автоматизированных авиаметеорологических систем:
- система выпуска высокодетальных прогностических карт явлений погоды для нижнего воздушного пространства по России и ближнему зарубежью;
- система верификации прогнозов TAF (выпускаемых синоптиками официальных АМСГ РФ и ближнего зарубежья) и AUTOTAF (выпускаемых сайтом Метеоцентр.Азия) - выявление ошибок, онлайн-сопоставление с фактической погодой METAR, автоматическое внесение коррективов в прогнозы при резком отклонении фактической погоды от прогноза, подсчёт оправдываемости прогнозов по элементам и в целом;
- система обработки, анализа и отображения авиаметеорологической информации для применения провайдерами метеорологической информации.

Рекомендуем: Официальный сайт янган-тау yangantau.putevka-perm.ru.

Погода в Любашевке - сегодня

Время (UTC), дата Ветер
(°,м/с) 
Видим.   Явления Облачность Т
(°С)
Тd
(°С)
f(%) Тe
(°С)
Pmin
(гПа)
dP
(гПа)
Po
(мм)
O2
(г/м3)
Тmin Tmax R s Состояние
почвы
09 16.02.17 320 (СЗ) 20000 м    1/0 верхняя 
[Ci fib]
-2.9 -6.3 77 -4  1035.1  -0.5  759  310           
12 16.02.17 360 (С) 20000 м    3/0 верхняя 
[Ci sp]
-0.2 -5.8 66 -1  1034.1  -0.8  758  306           
15 16.02.17 тихо ()   20000 м    10/0 верхняя 
[Cc]
-0.3 -7.2 60 -0  1033.1  -1  757  306           
18 16.02.17 160 (Ю) 20000 м    ясно 
-3.7 -6.2 83 -3  1032.5  -0.8  757  310    +1.1       
21 16.02.17 190 (Ю) 10 км    ясно 
-4.9 -6.6 88 -4  1031.8  -0.8  756  311           
00 17.02.17 180 (Ю) 4000 м  дымка  ясно 
-5.7 -6.4 95 -7  1030.8  -1.1  755  312           
03 17.02.17 200 (Ю) 4000 м  дымка  10/10 300 м 
[St]
-4.8 -5.1 98 -9  1028.8  -1.9  754  310           
06 17.02.17 190 (Ю) 0800 м  переохл. туман  ?/?  
-3.7 -3.7 100 -7  1027.5  -1.1  753  308  -5.7      мокрый или
старый снег
50-90% 
09 17.02.17 210 (ЮЗ) 20000 м  {туман}  4/0 средняя, верхняя 
[Ac trans|Ci fib]
-0.4 -3.4 80 -3  1026.6  -0.6  753  304           
12 17.02.17 200 (Ю) 20000 м  {туман}  10/0 средняя, верхняя 
[Ac cast|Cs]
+3.2 -3.2 63 1023.8  -2.5  751  299           
15 17.02.17 200 (Ю) 20000 м    10/0 средняя 
[Ac As]
+2.1 -1.9 75 -1  1022.3  -1.5  750  300           
18 17.02.17 180 (Ю) 10 км    10/0 средняя 
[Ac As]
+1 -1 86 1022.5  0.1  750  301    +4       
21 17.02.17 180 (Ю) 4000 м  дымка  10/0 средняя 
[As op]
+0.6 -0.8 90 -2  1021.8  -0.7  749  301           
00 18.02.17 190 (Ю) 4000 м  дымка  6/0 средняя 
[As op]
+0 -0.6 96 -2  1021.1  -0.8  749  302           
03 18.02.17 200 (Ю) 4000 м  дымка  10/10 300 м 
[St]
+0.2 -0.4 96 -2  1020.4  -0.6  748  301           
06 18.02.17 210 (ЮЗ) 5000 м  дымка  10/10 300 м 
[St]
+0.1 -0.5 96 -2  1021.1  0.6  749  302  +0      мокрый или
старый снег
50-90% 
09 18.02.17 240 (ЮЗ) 3600 м  слаб. снег  10/10 300 м 
[Frnb|Ns]
+0.9 +0.1 94 1021  749  301           
12 18.02.17 240 (ЮЗ) 4000 м  в посл. час снег  10/10 600 м 
[Sc]
+2 +0.7 91 +1  1020.6  -0.3  748  299      0.2     
15 18.02.17 тихо ()   4200 м  дымка  10/10 300 м 
[St]
+2.2 +0.9 91 +2  1021.2  0.6  749  299           
18 18.02.17 290 (З) 4000 м  дымка  10/10 300 м 
[St]
+1.2 -0.2 90 +1  1022.9  1.6  750  301    +2.7  0.2     
21 18.02.17 290 (З) 4000 м  дымка  10/10 300 м 
[St]
+0.8 -0.3 92 1024.5  1.5  751  302           
00 19.02.17 290 (З) 4000 м  дымка  10/10 300 м 
[St]
+0.4 -0.5 94 1025.6  1.1  752  303           
03 19.02.17 290 (З) 4000 м  дымка  10/10 300 м 
[St]
+1 +0.2 94 +2  1026.5  0.9  753  302           
06 19.02.17 тихо ()   5000 м  дымка  10/10 600 м 
[Sc]
+0.9 -0.2 92 +1  1027.6  1.1  753  303  +0.4      мокрый или
старый снег
50-90% 
09 19.02.17 260 (З) 20000 м    ясно 
+4.4 -1 68 +5  1028  0.6  754  299           
Время (UTC), дата Ветер
(°,м/с) 
Видим.   Явления Облачность Т
(°С)
Тd
(°С)
f(%) Тe
(°С)
Pmin
(гПа)
dP
(гПа)
Po
(мм)
O2
(г/м3)
Тmin Tmax R s Состояние
почвы

Для получения пояснительной информации подведите курсор к названию столбца.

ПОГОДА в Любашевке - архив

Всё, что Вы хотите узнать о погоде в Любашевке - удобно и подробно!

Выберите нужную дату (начиная с 1 января 2015* года) и нажмите кнопку "Найти".
Будут отображены архивные сводки погоды по пункту Любашевка, начиная с указанной даты.


Отображать данные в формате CSV (для использования в таблицах Excel)


Внимание! Наш архив погоды предназначен исключительно для личного некоммерческого использования в познавательных целях. Если Вам необходимы официальные справки о состоянии погоды (для производственных, юридических, коммерческих и т.п. целей), обращайтесь в органы Росгидромета.

*Примечание: данная дата относится к архиву по метеостанциям СССР (Россия, СНГ, Балтия).
Архив по метеостанциям Зарубежной Европы и Азии (кроме Китая) хранится 10 дней, по другим регионам земного шара (Китай, Африка, Америка, Австралия, Океания) - 1 день.

Любашевка - район местоположения метеостанции


Название, широта, долгота, высота метеостанции:
Любашевка 47.9°ш. 30.3°д. 183 м над ур. моря [Украина]

Дополнительная информация

В oтличие oт бoльшинства пoгoдных сайтoв мы публикуем пoдрoбную метеoинфoрмацию в детальнoм прoфессиoнальнoм фoрмате.

Характеристики температуры и влажнoсти вoздуха измеряются на высoте 2 м в тени вдали oт зданий и деревьев.
Скoрoсть ветра измеряется на высoте 10 м (на урoвне рoста челoвека скoрoсть ветра ниже в 1.5-2 раза). Если метеoстанция нахoдится в гoрoде или в лесу, тo скoрoсть ветра занижена на 2-4 м/с пo сравнению с oткрытым местoм. Скoрoсть ветра над акватoриями крупных рек и oзёр, а также на вершинах хoлмoв на 2-5 м/с выше, чем в oбычных услoвиях.
Атмoсфернoе давление в разных тoчках местнoсти мoжет значительнo oтличаться oт давления на метеoстанции, в зависимoсти oт услoвий рельефа (при пoдъёме на 10 м давление пoнижается примернo на 1 мм рт.ст.).